Portada
METAR-TAF:

METAR-TAF

Aeroports :

Coatesville, Pennsilvània, Estats Units d'Amèrica

latitud: 39-58-44N, longitud: 075-51-56W, altitud: 201 m

Observació

L'informe es va fer fa 18 minuts, a les 14:55 UTC
Vent 6 kt del Oest/Sud-Oest
Temperatura 9°C
Humitat 71%
Pressió 1010 hPa
Visibilitat: 16.1 km
Cel cobert a una alçada de 4100 ft

METAR: KMQS 221455Z AUTO 24006KT 10SM OVC041 09/04 A2982 RMK AO2

Hora: 10:13 (15:13 UTC)


TAF: manca

Observacions i pronòstics meteorològics de més de 4000 aeroports (METAR i TAF).

Les estacions disponibles són els punts grocs i vermells al mapa.

Posi el ratolí al punt desitjat per veure el nom de l'estació.

Feu clic per veure les observacions i els pronòstics meteorològics.

Per canviar el mapa: feu clic els botons verds amb una creu de color negre per apropar; al botó verd amb un guió per allunyar la imatge; o en les fletxes verdes per a mapes adjacents.


METAR-TAF: